| time (UTC) | temp C | wind direction | speed KPH | gust KPH | rain 1hr cm | rain 24hr cm | rain mn cm | humidity % | barometer mb |
| 20260505161651 | 14 | 298 | 1.6 | 3.2 | 0.00 | 2.59 | 2.59 | 99 | 1012.5 |
| 20260505160149 | 14 | 260 | 1.6 | 1.6 | 1.07 | 2.59 | 2.59 | 99 | 1012.0 |
| 20260505153145 | 14 | 296 | 0.0 | 0.0 | 0.00 | 2.36 | 2.36 | 99 | 1011.9 |
| 20260505151645 | 14 | 251 | 1.6 | 1.6 | 0.00 | 2.36 | 2.36 | 99 | 1011.7 |
| 20260505150142 | 14 | 70 | 1.6 | 1.6 | 0.00 | 2.36 | 2.36 | 99 | 1012.4 |
| 20260505140130 | 14 | 257 | 0.0 | 0.0 | 0.00 | 2.24 | 2.24 | 99 | 1013.4 |
| 20260505130123 | 14 | 280 | 12.9 | 25.7 | 0.79 | 1.78 | 1.78 | 99 | 1014.9 |
| 20260505124618 | 14 | 295 | 12.9 | 17.7 | 0.66 | 1.57 | 1.57 | 99 | 1014.1 |
| 20260505123114 | 15 | 266 | 17.7 | 25.7 | 1.27 | 1.40 | 1.40 | 99 | 1013.5 |
| 20260505121610 | 17 | 318 | 12.9 | 17.7 | 0.30 | 0.71 | 0.71 | 96 | 1013.4 |
| 20260505120105 | 19 | 14 | 4.8 | 9.7 | 0.00 | 0.66 | 0.66 | 92 | 1011.3 |
| 20260505114600 | 20 | 196 | 1.6 | 1.6 | 0.00 | 0.66 | 0.66 | 86 | 1012.4 |
| 20260505113055 | 21 | 86 | 6.4 | 9.7 | 0.00 | 0.66 | 0.66 | 83 | 1012.0 |
| 20260505111555 | 21 | 46 | 6.4 | 11.3 | 0.00 | 0.66 | 0.66 | 81 | 1011.8 |
| 20260505101543 | 21 | 84 | 8.0 | 9.7 | 0.00 | 0.66 | 0.66 | 82 | 1014.0 |
| 20260505100038 | 21 | 139 | 6.4 | 9.7 | 0.00 | 0.66 | 0.66 | 82 | 1014.2 |
| 20260505094533 | 21 | 52 | 4.8 | 8.0 | 0.00 | 0.66 | 0.66 | 83 | 1014.6 |
| 20260505093030 | 22 | 75 | 6.4 | 11.3 | 0.00 | 0.66 | 0.66 | 80 | 1014.7 |
| 20260505091527 | 21 | 53 | 4.8 | 4.8 | 0.00 | 0.66 | 0.66 | 82 | 1015.0 |
| 20260505090027 | 21 | 81 | 4.8 | 9.7 | 0.00 | 0.66 | 0.66 | 83 | 1015.1 |
| 20260505084525 | 20 | 3 | 4.8 | 8.0 | 0.00 | 0.66 | 0.66 | 85 | 1015.5 |
| 20260505083022 | 20 | 39 | 3.2 | 3.2 | 0.00 | 0.66 | 0.66 | 86 | 1015.9 |
| 20260505081517 | 19 | 52 | 6.4 | 11.3 | 0.00 | 0.66 | 0.66 | 88 | 1016.3 |
| 20260505080013 | 18 | 134 | 4.8 | 8.0 | 0.00 | 0.66 | 0.66 | 93 | 1016.2 |
| 20260505074509 | 17 | 102 | 1.6 | 3.2 | 0.00 | 0.66 | 0.66 | 96 | 1016.5 |
| 20260505073008 | 18 | 358 | 0.0 | 0.0 | 0.00 | 0.66 | 0.66 | 93 | 1016.9 |
| 20260505071507 | 17 | 103 | 3.2 | 4.8 | 0.00 | 0.66 | 0.66 | 93 | 1017.0 |
| 20260505070003 | 16 | 198 | 0.0 | 0.0 | 0.00 | 0.66 | 0.66 | 98 | 1017.1 |
| 20260505064459 | 15 | 146 | 1.6 | 3.2 | 0.00 | 0.66 | 0.66 | 99 | 1017.3 |
| 20260505062956 | 15 | 242 | 0.0 | 0.0 | 0.00 | 0.66 | 0.66 | 99 | 1017.4 |
| 20260505061454 | 15 | 241 | 0.0 | 0.0 | 0.00 | 0.66 | 0.66 | 99 | 1017.2 |
| 20260505055950 | 15 | 1 | 0.0 | 0.0 | 0.00 | 0.66 | 0.66 | 99 | 1017.4 |
| 20260505054446 | 15 | 168 | 1.6 | 1.6 | 0.00 | 0.66 | 0.66 | 99 | 1017.2 |
| 20260505052943 | 14 | 246 | 0.0 | 0.0 | 0.00 | 0.66 | 0.66 | 99 | 1017.2 |
| 20260505051440 | 13 | 243 | 0.0 | 0.0 | 0.00 | 0.66 | 0.66 | 99 | 1017.2 |
| 20260505041427 | 13 | 196 | 1.6 | 1.6 | 0.00 | 0.66 | 0.66 | 99 | 1017.2 |
| 20260505035924 | 13 | 239 | 0.0 | 0.0 | 0.00 | 0.66 | 0.66 | 99 | 1017.7 |
| 20260505034420 | 13 | 301 | 0.0 | 0.0 | 0.13 | 0.66 | 0.66 | 99 | 1017.5 |
| 20260505032918 | 13 | 262 | 1.6 | 1.6 | 0.18 | 0.64 | 0.64 | 99 | 1017.3 |
| 20260505031414 | 13 | 247 | 0.0 | 1.6 | 0.00 | 0.61 | 0.61 | 99 | 1017.3 |
| 20260505025914 | 13 | 266 | 0.0 | 0.0 | 0.30 | 0.61 | 0.61 | 99 | 1017.4 |
| 20260505024413 | 13 | 237 | 0.0 | 1.6 | 0.13 | 0.53 | 0.53 | 99 | 1017.7 |
| 20260505022910 | 13 | 229 | 0.0 | 1.6 | 0.00 | 0.51 | 0.51 | 99 | 1017.0 |
| 20260505021407 | 13 | 271 | 0.0 | 0.0 | 0.30 | 0.51 | 0.51 | 99 | 1017.3 |
| 20260505015901 | 13 | 285 | 4.8 | 8.0 | 0.30 | 0.41 | 0.41 | 99 | 1018.5 |
| 20260505014358 | 13 | 197 | 3.2 | 4.8 | 0.89 | 0.33 | 0.33 | 99 | 1019.3 |
| 20260505012856 | 13 | 310 | 9.7 | 12.9 | 0.30 | 0.15 | 0.15 | 99 | 1019.3 |
| 20260505011352 | 13 | 278 | 4.8 | 8.0 | 0.43 | 0.10 | 0.10 | 99 | 1019.0 |
| 20260505005852 | 15 | 295 | 11.3 | 12.9 | 0.00 | 0.00 | 0.00 | 96 | 1019.3 |
| 20260505004349 | 14 | 221 | 0.0 | 0.0 | 0.00 | 0.00 | 0.00 | 99 | 1017.2 |
| 20260505002845 | 13 | 224 | 0.0 | 0.0 | 0.00 | 0.00 | 0.00 | 99 | 1017.7 |
| 20260505001343 | 13 | 214 | 0.0 | 0.0 | 0.00 | 0.00 | 0.00 | 99 | 1017.5 |
| 20260504235840 | 14 | 217 | 0.0 | 0.0 | 0.00 | 0.00 | 0.00 | 99 | 1017.7 |
| 20260504234338 | 14 | 216 | 0.0 | 0.0 | 0.00 | 0.00 | 0.00 | 99 | 1017.3 |
| 20260504232838 | 14 | 221 | 0.0 | 0.0 | 0.00 | 0.00 | 0.00 | 99 | 1017.9 |
| 20260504231334 | 15 | 215 | 0.0 | 1.6 | 0.00 | 0.00 | 0.00 | 99 | 1017.9 |
| 20260504225833 | 15 | 222 | 0.0 | 0.0 | 0.00 | 0.00 | 0.00 | 99 | 1018.0 |
| 20260504224329 | 15 | 225 | 0.0 | 0.0 | 0.00 | 0.00 | 0.00 | 98 | 1017.8 |
| 20260504222829 | 15 | 209 | 1.6 | 1.6 | 0.00 | 0.00 | 0.00 | 98 | 1018.1 |
| 20260504221327 | 15 | 192 | 1.6 | 1.6 | 0.00 | 0.00 | 0.00 | 99 | 1018.3 |
| 20260504215824 | 15 | 255 | 0.0 | 0.0 | 0.00 | 0.00 | 0.00 | 99 | 1018.6 |
| 20260504214320 | 15 | 213 | 1.6 | 1.6 | 0.00 | 0.00 | 0.00 | 98 | 1018.8 |
| 20260504212815 | 15 | 217 | 0.0 | 1.6 | 0.00 | 0.00 | 0.00 | 98 | 1018.9 |
| 20260504211310 | 15 | 238 | 0.0 | 0.0 | 0.00 | 0.00 | 0.00 | 97 | 1019.0 |
| 20260504205808 | 15 | 235 | 0.0 | 0.0 | 0.00 | 0.00 | 0.00 | 97 | 1019.2 |
| 20260504204308 | 15 | 238 | 0.0 | 1.6 | 0.00 | 0.00 | 0.00 | 96 | 1019.2 |
| 20260504202804 | 16 | 111 | 1.6 | 1.6 | 0.00 | 0.00 | 0.00 | 95 | 1019.4 |
| 20260504201301 | 16 | 106 | 0.0 | 0.0 | 0.00 | 0.00 | 0.00 | 92 | 1019.5 |
| 20260504195757 | 16 | 228 | 0.0 | 0.0 | 0.00 | 0.00 | 0.00 | 93 | 1019.7 |
| 20260504194252 | 16 | 259 | 0.0 | 0.0 | 0.00 | 0.00 | 0.00 | 93 | 1020.0 |
| 20260504192750 | 16 | 241 | 0.0 | 0.0 | 0.00 | 0.00 | 0.00 | 93 | 1019.8 |
| 20260504191249 | 16 | 255 | 0.0 | 0.0 | 0.00 | 0.00 | 0.00 | 92 | 1019.6 |
| 20260504185749 | 17 | 222 | 1.6 | 1.6 | 0.00 | 0.00 | 0.00 | 92 | 1019.4 |
| 20260504184244 | 16 | 202 | 0.0 | 0.0 | 0.00 | 0.00 | 0.00 | 93 | 1019.4 |
| 20260504182741 | 16 | 227 | 0.0 | 0.0 | 0.00 | 0.00 | 0.00 | 93 | 1019.6 |
| 20260504181238 | 16 | 207 | 0.0 | 0.0 | 0.00 | 0.00 | 0.00 | 93 | 1019.6 |
| 20260504175733 | 16 | 234 | 0.0 | 0.0 | 0.00 | 0.00 | 0.00 | 93 | 1019.5 |
| 20260504174231 | 17 | 236 | 0.0 | 0.0 | 0.00 | 0.00 | 0.00 | 92 | 1019.3 |
| 20260504172726 | 17 | 242 | 0.0 | 0.0 | 0.00 | 0.00 | 0.00 | 92 | 1019.3 |
| 20260504171222 | 17 | 233 | 0.0 | 0.0 | 0.00 | 0.00 | 0.00 | 90 | 1019.6 |